Stockton, CA

12:21 AM PST on November 18, 2019 (GMT -0800)
Stockton Metro

Weather History for KSCK - October, 2019

Change the Weather History Date:

Tuesday, October 15, 2019

  Actual Average Record
Temperature  
Mean Temperature 64 °F -  
Max Temperature 82 °F 79 °F 98 °F (1961)
Min Temperature 45 °F 50 °F 40 °F (2017)
Degree Days  
Heating Degree Days 2 2  
Month to date heating degree days 21  
Since 1 July heating degree days 27  
Cooling Degree Days 0 2  
Month to date cooling degree days 44  
Year to date cooling degree days 1310  
Growing Degree Days 14 (Base 50)    
Moisture  
Dew Point 40 °F    
Average Humidity 47    
Maximum Humidity 83    
Minimum Humidity 9    
Precipitation  
Precipitation 0.00 in 0.02 in 0.85 in (1969)
Month to date precipitation 0.26  
Year to date precipitation 9.59  
Snow  
Snow 0.00 in - 0.00 in (2002)
Month to date snowfall  
Since 1 July snowfall  
Since 1 September snowfall  
Snow Depth -    
Sea Level Pressure  
Sea Level Pressure 30.03 in    
Wind  
Wind Speed 3 mph (NW)    
Max Wind Speed 8 mph    
Max Gust Speed -    
Visibility 10 miles    
Events      
T = Trace of Precipitation, MM = Missing Value Source: NWS Daily Summary

Daily Weather History Graph

Daily Weather History Graph

Search for Another Location

Airport or City:

Astronomy

Oct. 15, 2019 Rise Set
Actual Time 7:13 AM PDT 6:27 PM PDT
Civil Twilight 6:46 AM PDT 6:54 PM PDT
Nautical Twilight 6:16 AM PDT 7:24 PM PDT
Astronomical Twilight 5:45 AM PDT 7:54 PM PDT
Moon 7:51 PM PDT (10/15) 8:48 AM PDT (10/15)
Length of Visible Light 12h 07m
Length of Day
11h 14m
Waning Gibbous, 97% of the Moon is Illuminated
Oct 15
Waning Gibbous
Oct 21
Last Quarter
Oct 27
New
Nov 4
First Quarter
Nov 12
Full

Hourly Weather History & Observations

Time (PDT) Temp. Dew Point Humidity Pressure Visibility Wind Dir Wind Speed Gust Speed Precip Events Conditions
12:55 AM 54.0 °F 44.1 °F 69% 30.00 in 10.0 mi NE 4.6 mph - N/A   Clear
1:55 AM 50.0 °F 39.0 °F 66% 30.01 in 10.0 mi Calm Calm - N/A   Clear
2:55 AM 48.9 °F 39.0 °F 69% 30.01 in 10.0 mi SW 3.5 mph - N/A   Clear
3:55 AM 48.0 °F 39.9 °F 74% 30.01 in 10.0 mi WSW 4.6 mph - N/A   Clear
4:55 AM 50.0 °F 43.0 °F 77% 30.02 in 10.0 mi Calm Calm - N/A   Clear
5:55 AM 48.0 °F 43.0 °F 83% 30.04 in 10.0 mi Calm Calm - N/A   Clear
6:55 AM 46.9 °F 39.9 °F 77% 30.06 in 10.0 mi North - - N/A   Clear
7:55 AM 46.0 °F 39.0 °F 76% 30.06 in 10.0 mi Calm Calm - N/A   Clear
8:55 AM 55.9 °F 45.0 °F 67% 30.09 in 6.0 mi Calm Calm - N/A   Haze
9:55 AM 62.1 °F 48.0 °F 60% 30.10 in 9.0 mi NW 5.8 mph - N/A   Clear
10:55 AM 68.0 °F 44.1 °F 42% 30.10 in 10.0 mi Variable 3.5 mph - N/A   Clear
11:55 AM 73.0 °F 39.0 °F 29% 30.09 in 10.0 mi Variable 3.5 mph - N/A   Clear
12:55 PM 75.9 °F 37.9 °F 25% 30.07 in 10.0 mi Calm Calm - N/A   Clear
1:55 PM 79.0 °F 36.0 °F 21% 30.04 in 10.0 mi Calm Calm - N/A   Clear
2:55 PM 80.1 °F 36.0 °F 20% 30.02 in 10.0 mi Variable 3.5 mph - N/A   Clear
3:55 PM 82.9 °F 37.9 °F 20% 30.00 in 10.0 mi NNE 3.5 mph - N/A   Clear
4:55 PM 82.0 °F 34.0 °F 18% 29.99 in 10.0 mi NNW 3.5 mph - N/A   Clear
5:55 PM 79.0 °F 37.9 °F 23% 29.98 in 10.0 mi WNW 8.1 mph - N/A   Clear
6:55 PM 73.0 °F 37.9 °F 28% 29.98 in 10.0 mi WNW 5.8 mph - N/A   Clear
7:55 PM 66.9 °F 39.0 °F 36% 29.99 in 10.0 mi NW 3.5 mph - N/A   Clear
8:55 PM 64.0 °F 39.9 °F 41% 29.99 in 10.0 mi WNW 4.6 mph - N/A   Clear
9:55 PM 63.0 °F 39.9 °F 43% 30.00 in 10.0 mi WNW 6.9 mph - N/A   Clear
10:55 PM 60.1 °F 39.9 °F 47% 30.00 in 10.0 mi Calm Calm - N/A   Clear
11:55 PM 55.9 °F 39.9 °F 55% 30.01 in 10.0 mi Calm Calm - N/A   Clear